Stations météo

réclame
Mon MeteoGroup
Putbus, Allemagne (10093): Température de l'air & dewpoint: 22.05.2018 12:00:00 - 28.05.2018 12:00:00 (CEST)Putbus, Allemagne (10093): Température de l'air 5cm & Température de l'air -5cm: 22.05.2018 12:00:00 - 28.05.2018 12:00:00 (CEST)Putbus, Allemagne (10093): Température de l'air -20cm & Température de l'air -100cm: 22.05.2018 12:00:00 - 28.05.2018 12:00:00 (CEST)Putbus, Allemagne (10093): Vitesse du vent & gusts: 22.05.2018 12:00:00 - 28.05.2018 12:00:00 (CEST)Putbus, Allemagne (10093): Direction du vent: 22.05.2018 12:00:00 - 28.05.2018 12:00:00 (CEST)Putbus, Allemagne (10093): reduced air pressure: 22.05.2018 12:00:00 - 28.05.2018 12:00:00 (CEST)Putbus, Allemagne (10093): visibility: 22.05.2018 12:00:00 - 28.05.2018 12:00:00 (CEST)Putbus, Allemagne (10093): Ensoleillement: 22.05.2018 12:00:00 - 28.05.2018 12:00:00 (CEST)Putbus, Allemagne (10093): Quantités de précipitations: 22.05.2018 12:00:00 - 28.05.2018 12:00:00 (CEST)
Date & Time tt [°C] td [°C] tt 5cm [°C] tt -5cm [°C] tt -20cm [°C] tt -100cm [°C] ff [km/h] ff [knt] fx [km/h] fx [knt] dd ppp [hPa] vv [km] sd [min] rr [mm]
28.05.2018 12:00:00 - - - - - - - - - - - - - - -
28.05.2018 11:00:00 22,9 16,3 27,0 27,2 18,9 14,8 10 6 19 10 E 1022,9 11 60 0,0
28.05.2018 10:00:00 21,6 16,2 24,5 23,8 18,2 14,7 8 5 19 10 ESE 1023,1 12 60 0,0
28.05.2018 09:00:00 19,6 15,9 22,6 20,6 17,8 14,7 9 5 17 9 E 1023,1 14 60 0,0
28.05.2018 08:00:00 17,8 15,2 19,6 17,7 17,7 14,7 8 5 18 10 ENE 1022,9 13 60 0,0
28.05.2018 07:00:00 15,9 14,5 15,5 15,8 17,8 14,7 9 5 17 9 ENE 1023,1 14 57 0,0
28.05.2018 06:00:00 14,3 13,5 13,3 15,3 18,1 14,7 8 4 13 7 NE 1022,9 10 0 0,0
28.05.2018 05:00:00 13,8 13,1 11,5 15,2 18,4 14,7 4 2 16 9 N 1023,0 11 0 0,0
28.05.2018 04:00:00 13,5 12,7 11,0 15,6 18,7 14,7 7 4 12 7 ENE 1022,7 19 0 0,0
28.05.2018 03:00:00 13,9 13,3 12,6 16,0 19,1 14,7 9 5 16 9 NE 1022,7 11 0 0,0
28.05.2018 02:00:00 13,9 13,3 12,8 16,5 19,5 14,7 12 6 19 11 ENE 1023,1 10 0 0,0
28.05.2018 01:00:00 13,6 12,9 12,4 17,3 19,9 14,7 9 5 20 11 NE 1023,2 12 0 0,0
28.05.2018 00:00:00 14,3 13,5 13,8 18,0 20,3 14,7 7 4 13 7 NNE 1023,4 16 0 0,0
27.05.2018 23:00:00 14,0 13,2 12,8 18,3 20,8 14,7 10 5 18 10 ENE 1023,3 16 0 0,0
27.05.2018 22:00:00 13,8 12,6 12,2 19,9 21,2 14,7 9 5 14 8 ENE 1023,4 16 0 0,0
27.05.2018 21:00:00 16,5 13,5 15,6 22,1 21,4 14,7 7 4 32 17 ESE 1022,7 32 54 0,0
27.05.2018 20:00:00 17,3 12,9 18,0 24,0 21,4 14,7 16 9 32 17 E 1022,9 26 60 0,0
27.05.2018 19:00:00 17,1 14,6 18,9 24,2 21,4 14,7 15 8 27 15 E 1022,9 17 27 0,0
27.05.2018 18:00:00 15,8 14,6 17,9 23,7 21,4 14,6 17 9 27 15 ENE 1022,6 8 0 0,0
27.05.2018 17:00:00 15,0 14,1 17,1 24,2 21,3 14,6 18 10 29 16 ENE 1022,7 7 0 0,0
27.05.2018 16:00:00 15,4 14,0 18,3 24,8 21,1 14,6 16 9 26 14 NE 1023,0 11 0 0,0
27.05.2018 15:00:00 15,4 13,7 19,7 25,0 20,7 14,6 17 9 26 14 ENE 1023,8 11 0 0,0
27.05.2018 14:00:00 15,4 13,6 19,3 25,1 20,3 14,6 16 9 23 13 NE 1024,0 11 0 0,0
27.05.2018 13:00:00 15,0 13,5 18,6 23,6 20,0 14,6 16 9 24 13 ENE 1024,3 11 0 0,0
27.05.2018 12:00:00 14,9 13,5 18,4 22,4 19,7 14,6 16 9 24 13 ENE 1024,1 9 0 0,0
27.05.2018 11:00:00 14,5 13,4 17,1 20,9 19,6 14,6 16 9 29 16 ENE 1024,0 14 0 0,0
27.05.2018 10:00:00 13,8 13,3 16,1 19,8 19,6 14,5 19 10 26 14 ENE 1023,8 6 0 0,0
27.05.2018 09:00:00 13,6 13,5 15,3 19,0 19,7 14,5 16 9 26 14 ENE 1023,6 2,3 0 0,0
27.05.2018 08:00:00 13,6 13,5 14,2 18,5 19,9 14,5 16 9 23 12 ENE 1023,5 2,7 0 0,0
27.05.2018 07:00:00 13,5 13,5 13,9 18,0 20,2 14,5 15 8 25 13 ENE 1023,2 1,5 0 0,0
27.05.2018 06:00:00 13,6 13,6 13,8 18,2 20,5 14,5 13 7 19 10 NE 1023,2 0,3 0 0,0
27.05.2018 05:00:00 13,7 13,7 13,9 18,6 20,9 14,5 13 7 21 11 ENE 1023,3 0,3 0 0,0
27.05.2018 04:00:00 14,3 14,2 14,5 19,1 21,2 14,5 9 5 22 12 ENE 1023,4 0,6 0 0,0
27.05.2018 03:00:00 14,1 13,8 14,3 19,3 21,7 14,5 13 7 25 14 NE 1023,6 3,4 0 0,0
27.05.2018 02:00:00 14,3 13,6 14,6 19,9 22,2 14,5 14 8 26 14 NE 1024,1 6 0 0,0
27.05.2018 01:00:00 14,9 13,9 15,1 20,4 22,7 14,4 13 7 22 12 NE 1024,0 9 0 0,0
27.05.2018 00:00:00 14,3 13,7 14,3 21,1 23,3 14,4 11 6 19 11 NNE 1024,1 13 0 0,0
26.05.2018 23:00:00 14,5 13,8 14,8 22,3 23,9 14,4 9 5 18 10 NE 1024,0 10 0 0,0
26.05.2018 22:00:00 14,5 13,5 14,9 23,7 24,6 14,4 9 5 21 11 NE 1024,1 12 0 0,0
26.05.2018 21:00:00 15,3 14,0 15,9 25,9 25,1 14,4 12 7 22 12 ENE 1023,9 11 43 0,0
26.05.2018 20:00:00 16,4 13,3 18,4 28,9 25,4 14,4 10 6 21 11 NE 1023,8 25 60 0,0
26.05.2018 19:00:00 17,6 13,4 20,7 31,5 25,4 14,4 13 7 24 13 NE 1023,6 22 60 0,0
26.05.2018 18:00:00 19,2 13,4 22,7 33,6 25,1 14,4 11 6 24 13 ENE 1023,5 13 60 0,0
26.05.2018 17:00:00 19,6 13,4 24,0 34,6 24,6 14,4 16 9 28 15 NE 1024,1 16 60 0,0
26.05.2018 16:00:00 19,9 12,1 24,9 34,8 23,8 14,4 16 9 26 14 ENE 1024,0 11 60 0,0
26.05.2018 15:00:00 19,4 12,8 25,8 34,0 22,9 14,4 16 9 29 16 NE 1024,0 6 60 0,0
26.05.2018 14:00:00 19,6 13,0 26,6 33,0 21,8 14,4 18 10 29 16 NE 1024,2 6 60 0,0
26.05.2018 13:00:00 21,0 13,0 27,1 31,6 20,8 14,4 13 7 24 13 ENE 1024,3 9 60 0,0
26.05.2018 12:00:00 19,7 12,3 25,6 29,1 19,7 14,4 16 9 23 12 ENE 1024,2 14 60 0,0
26.05.2018 11:00:00 19,3 12,5 25,7 26,0 18,9 14,4 9 5 18 10 NE 1024,0 28 60 0,0
26.05.2018 10:00:00 18,2 13,3 23,3 23,0 18,3 14,4 12 7 19 10 NE 1024,0 23 60 0,0
26.05.2018 09:00:00 17,3 12,6 20,8 19,9 18,0 14,3 12 6 22 12 ENE 1023,8 33 55 0,0
26.05.2018 08:00:00 16,3 13,1 19,3 17,4 18,0 14,3 5 3 21 11 ENE 1023,9 29 27 0,0
26.05.2018 07:00:00 14,6 13,0 14,8 16,3 18,1 14,3 13 7 20 11 NE 1023,9 26 24 0,0
26.05.2018 06:00:00 13,2 12,4 12,8 15,3 18,5 14,3 7 4 10 5 NE 1023,7 19 4 0,0
26.05.2018 05:00:00 11,1 10,6 9,4 15,0 18,9 14,3 8 4 11 6 N 1023,5 12 0 0,0
26.05.2018 04:00:00 12,7 11,8 11,3 15,5 19,3 14,3 11 6 18 10 NE 1023,3 18 0 0,0
26.05.2018 03:00:00 12,6 11,6 11,0 16,0 19,8 14,3 9 5 17 9 NE 1023,7 22 0 0,0
26.05.2018 02:00:00 12,6 11,8 11,3 16,5 20,4 14,3 9 5 16 9 NE 1023,6 15 0 0,0
26.05.2018 01:00:00 12,2 11,5 10,4 17,2 21,0 14,3 6 4 17 9 N 1023,8 19 0 0,0
26.05.2018 00:00:00 12,7 11,7 11,3 18,0 21,7 14,3 11 6 19 10 NE 1023,7 23 0 0,0
25.05.2018 23:00:00 12,5 11,3 11,1 19,2 22,4 14,3 10 5 19 11 NE 1023,8 33 0 0,0
25.05.2018 22:00:00 12,5 11,0 11,6 21,0 23,1 14,3 13 7 19 11 NE 1023,8 42 9 0,0
25.05.2018 21:00:00 13,2 11,2 12,6 24,1 23,6 14,3 11 6 23 12 NE 1023,7 39 60 0,0
25.05.2018 20:00:00 14,4 11,0 16,3 26,9 23,8 14,3 14 7 24 13 NE 1023,5 50 60 0,0
25.05.2018 19:00:00 15,5 10,0 18,2 29,2 23,8 14,2 16 9 27 15 NE 1023,6 55 60 0,0
25.05.2018 18:00:00 16,5 11,0 20,1 31,2 23,4 14,2 19 10 27 15 ENE 1023,9 43 60 0,0
25.05.2018 17:00:00 17,6 10,9 22,3 31,7 22,8 14,2 16 9 32 18 NE 1023,8 15 60 0,0
25.05.2018 16:00:00 17,4 10,4 23,3 31,2 22,2 14,2 18 10 33 18 NE 1024,3 18 60 0,0
25.05.2018 15:00:00 17,1 8,9 19,9 29,5 21,5 14,2 19 10 31 17 ENE 1024,6 17 52 0,0
25.05.2018 14:00:00 16,8 9,9 22,2 29,0 20,8 14,2 23 13 34 18 ENE 1024,7 17 60 0,0
25.05.2018 13:00:00 16,4 9,5 21,0 27,8 20,0 14,2 22 12 36 19 NE 1024,9 22 60 0,0
25.05.2018 12:00:00 17,1 8,4 22,4 26,9 19,1 14,2 19 10 31 17 ENE 1025,2 20 60 0,0
25.05.2018 11:00:00 16,9 7,2 20,8 24,3 18,3 14,2 16 9 28 15 E 1025,6 46 60 0,0
25.05.2018 10:00:00 16,1 8,0 20,3 21,3 17,8 14,2 19 10 29 16 ENE 1025,5 23 60 0,0
25.05.2018 09:00:00 16,0 7,0 19,2 18,7 17,5 14,1 19 10 28 15 ENE 1025,5 39 60 0,0
25.05.2018 08:00:00 15,2 9,4 17,4 16,1 17,6 14,1 19 10 27 15 ENE 1025,5 20 60 0,0
25.05.2018 07:00:00 14,3 10,2 14,4 14,0 17,9 14,1 10 5 17 9 ENE 1025,5 44 60 0,0
25.05.2018 06:00:00 12,0 9,5 9,9 13,6 18,4 14,1 9 5 14 8 NNE 1025,3 52 38 0,0
25.05.2018 05:00:00 9,5 7,6 6,2 13,9 18,9 14,1 6 4 14 8 NNE 1025,5 47 0 0,0
25.05.2018 04:00:00 12,0 8,3 8,1 14,6 19,5 14,1 5 3 14 7 ENE 1025,3 53 0 0,0
25.05.2018 03:00:00 11,9 9,0 9,0 15,4 20,0 14,1 8 5 17 9 ENE 1025,4 47 0 0,0
25.05.2018 02:00:00 11,9 9,5 8,8 16,3 20,7 14,1 6 4 18 10 NE 1025,6 41 0 0,0
25.05.2018 01:00:00 13,0 9,9 11,2 17,2 21,3 14,0 11 6 20 11 NE 1025,5 43 0 0,0
25.05.2018 00:00:00 13,1 10,0 11,1 18,3 22,1 14,0 10 5 23 12 NE 1025,3 53 0 0,0
24.05.2018 23:00:00 13,6 10,7 12,2 19,6 22,8 14,0 14 7 26 14 NE 1025,3 45 0 0,0
24.05.2018 22:00:00 14,0 10,8 12,8 21,4 23,5 14,0 16 8 29 16 ENE 1025,3 50 2 0,0
24.05.2018 21:00:00 14,1 11,0 13,5 24,2 24,1 14,0 12 7 29 16 ENE 1025,1 53 60 0,0
24.05.2018 20:00:00 15,4 10,9 16,5 27,1 24,5 14,0 16 9 34 18 ENE 1025,0 51 60 0,0
24.05.2018 19:00:00 16,1 11,1 18,4 29,4 24,5 14,0 23 12 35 19 ENE 1025,2 37 60 0,0
24.05.2018 18:00:00 17,1 11,2 20,3 31,5 24,3 14,0 23 12 35 19 ENE 1025,2 44 60 0,0
24.05.2018 17:00:00 17,4 10,6 21,4 32,5 23,9 14,0 23 12 40 22 ENE 1025,7 21 60 0,0
24.05.2018 16:00:00 18,7 9,5 24,0 33,3 23,2 14,0 21 12 40 22 ENE 1026,3 29 60 0,0
24.05.2018 15:00:00 18,6 8,6 24,4 33,1 22,3 14,0 22 12 34 18 ENE 1026,8 17 60 0,0
24.05.2018 14:00:00 20,6 7,7 26,9 32,5 21,2 14,0 19 10 33 18 E 1027,2 8 60 0,0
24.05.2018 13:00:00 20,1 8,0 25,5 30,4 20,1 13,9 16 9 31 17 E 1027,7 8 60 0,0
24.05.2018 12:00:00 19,6 8,3 24,8 27,7 19,2 13,9 16 8 34 18 E 1028,1 12 60 0,0
24.05.2018 11:00:00 18,8 8,2 22,6 24,9 18,4 13,9 17 9 30 16 E 1028,1 14 60 0,0
24.05.2018 10:00:00 18,1 9,0 21,6 22,0 17,8 13,9 16 9 29 16 E 1028,0 21 60 0,0
24.05.2018 09:00:00 17,5 10,4 20,4 18,9 17,5 13,9 11 6 24 13 E 1027,9 18 60 0,0
24.05.2018 08:00:00 16,4 9,8 18,2 16,1 17,5 13,9 11 6 19 10 E 1027,8 15 60 0,0
24.05.2018 07:00:00 14,5 11,5 14,4 13,7 17,9 13,9 6 4 10 5 NE 1027,7 51 60 0,0
24.05.2018 06:00:00 11,6 9,7 8,4 13,6 18,4 13,8 4 2 8 4 NE 1027,6 47 41 0,0
24.05.2018 05:00:00 10,1 8,7 6,3 14,0 18,9 13,8 4 2 9 5 NE 1027,4 56 0 0,0
24.05.2018 04:00:00 10,7 8,3 6,8 14,7 19,5 13,8 5 3 14 8 NE 1027,3 70 0 0,0
24.05.2018 03:00:00 11,8 9,1 9,4 15,4 20,1 13,8 9 5 17 9 ENE 1027,0 70 0 0,0
24.05.2018 02:00:00 11,1 9,3 7,9 16,2 20,8 13,8 9 5 14 8 NNE 1027,1 64 0 0,0
24.05.2018 01:00:00 11,8 9,3 8,7 17,1 21,6 13,8 8 5 14 8 NE 1027,0 70 0 0,0
24.05.2018 00:00:00 12,0 9,4 9,4 18,5 22,4 13,8 8 5 14 7 NE 1026,7 70 0 0,0
23.05.2018 23:00:00 13,2 10,2 10,5 20,1 23,2 13,8 8 4 15 8 E 1026,4 70 0 0,0
23.05.2018 22:00:00 13,4 11,2 10,7 22,3 24,0 13,8 7 4 14 8 NE 1025,9 49 9 0,0
23.05.2018 21:00:00 14,4 11,0 13,2 25,6 24,5 13,8 9 5 15 8 NE 1025,3 54 60 0,0
23.05.2018 20:00:00 16,9 10,0 18,6 28,8 24,8 13,8 9 5 18 10 NE 1025,3 63 60 0,0
23.05.2018 19:00:00 18,8 8,4 21,7 31,2 24,8 13,8 10 6 22 12 NE 1025,1 48 60 0,0
23.05.2018 18:00:00 19,8 7,3 23,5 33,4 24,4 13,8 14 8 22 12 ENE 1025,1 23 60 0,0
23.05.2018 17:00:00 20,3 5,9 24,7 34,6 23,7 13,8 14 8 22 12 ENE 1025,2 25 60 0,0
23.05.2018 16:00:00 20,6 5,3 25,8 34,5 22,9 13,7 14 8 21 11 ENE 1025,2 38 60 0,0
23.05.2018 15:00:00 21,4 7,2 27,9 33,9 21,8 13,7 10 5 19 10 ENE 1025,2 10 60 0,0
23.05.2018 14:00:00 20,6 7,4 27,3 32,3 20,7 13,7 13 7 21 12 NE 1024,9 6 60 0,0
23.05.2018 13:00:00 20,9 6,3 27,1 30,5 19,5 13,7 9 5 19 10 NE 1024,8 9 60 0,0
23.05.2018 12:00:00 19,9 8,2 27,0 28,1 18,4 13,7 9 5 18 10 NE 1024,5 16 60 0,0
23.05.2018 11:00:00 18,9 10,4 23,1 24,9 17,5 13,7 7 4 14 8 SSE 1024,4 19 60 0,0
23.05.2018 10:00:00 18,3 8,8 22,6 21,3 16,8 13,7 8 4 15 8 ENE 1023,8 28 60 0,0
23.05.2018 09:00:00 16,7 10,5 20,8 18,0 16,5 13,7 9 5 14 7 NE 1023,3 15 60 0,0
23.05.2018 08:00:00 15,2 12,7 17,5 15,1 16,5 13,7 6 3 11 6 NNE 1022,9 13 60 0,0
23.05.2018 07:00:00 13,6 12,2 12,6 12,7 16,8 13,6 3 1 4 2 NNE 1022,2 18 60 0,0
23.05.2018 06:00:00 10,1 9,9 7,0 12,3 17,3 13,6 4 2 6 4 NNE 1021,7 9 39 0,0
23.05.2018 05:00:00 9,5 9,5 6,1 12,6 17,9 13,6 2 1 8 4 WNW 1021,1 5 0 0,0
23.05.2018 04:00:00 9,4 9,3 5,1 13,3 18,4 13,6 6 4 9 5 N 1020,8 7 0 0,0
23.05.2018 03:00:00 9,0 8,7 5,3 14,0 19,1 13,6 3 2 6 3 NNW 1020,6 13 0 0,0
23.05.2018 02:00:00 9,4 9,0 6,6 14,9 19,8 13,6 3 1 7 4 NNE 1020,4 13 0 0,0
23.05.2018 01:00:00 9,4 8,7 5,7 15,9 20,5 13,6 2 1 7 4 NNE 1020,0 18 0 0,0
23.05.2018 00:00:00 9,6 9,0 6,3 17,2 21,3 13,6 3 1 8 5 NE 1019,7 17 0 0,0
22.05.2018 23:00:00 10,1 9,0 7,3 18,8 22,1 13,6 5 3 9 5 NE 1019,3 20 0 0,0
22.05.2018 22:00:00 11,3 9,5 8,7 21,1 22,9 13,6 4 2 9 5 NE 1019,1 24 2 0,0
22.05.2018 21:00:00 13,8 10,6 12,7 24,2 23,5 13,6 4 2 17 9 ENE 1018,7 24 60 0,0
22.05.2018 20:00:00 15,3 10,1 16,8 27,3 23,7 13,6 9 5 16 9 NNE 1018,0 31 60 0,0
22.05.2018 19:00:00 16,7 10,3 19,8 30,0 23,7 13,6 12 6 17 9 NE 1017,8 17 60 0,0
22.05.2018 18:00:00 18,3 10,3 22,3 32,1 23,3 13,6 13 7 21 11 NE 1017,4 10 60 0,0
22.05.2018 17:00:00 18,5 9,7 23,5 33,1 22,6 13,6 13 7 21 11 NE 1017,5 11 60 0,0
22.05.2018 16:00:00 19,4 9,9 25,0 33,4 21,6 13,6 11 6 21 11 ENE 1017,4 5 60 0,0
22.05.2018 15:00:00 18,6 10,5 25,7 32,5 20,5 13,5 14 7 26 14 NE 1017,6 7 60 0,0
22.05.2018 14:00:00 19,9 10,9 27,5 29,8 19,4 13,5 14 7 22 12 NE 1017,4 13 54 0,0
22.05.2018 13:00:00 18,2 8,6 23,5 27,9 18,4 13,5 15 8 23 12 NE 1017,6 10 60 0,0
22.05.2018 12:00:00 18,3 10,9 23,4 25,8 17,4 13,5 12 6 19 11 ENE 1017,7 9 60 0,0

tt = Température de l'air
td = dewpoint
tt 5cm = Température de l'air 5cm
tt -5cm = Température de l'air -5cm
tt -20cm = Température de l'air -20cm
tt -100cm = Température de l'air -100cm
ff = Vitesse du vent
fx = gusts
dd = Direction du vent
ppp = reduced air pressure
vv = visibility
sd = Ensoleillement
rr = Quantités de précipitations

stations d'obs. à proximité